| time (UTC) | temp F | wind direction | speed knots | gust knots | rain 1hr in | rain 24hr in | rain mn in | humidity % | barometer mb |
| 20260506033603 | 50 | 352 | 4.3 | 8.7 | 0.00 | 0.00 | 0.00 | 78 | 1008.6 |
| 20260506032703 | 50 | 351 | 5.2 | 12.2 | 0.00 | 0.00 | 0.00 | 78 | 1008.6 |
| 20260506031803 | 50 | 343 | 4.3 | 10.4 | 0.00 | 0.00 | 0.00 | 79 | 1008.6 |
| 20260506030903 | 50 | 349 | 3.5 | 10.4 | 0.00 | 0.00 | 0.00 | 80 | 1008.6 |
| 20260506030218 | 50 | 346 | 3.5 | 7.8 | 0.00 | 0.00 | 0.00 | 80 | 1008.7 |
| 20260506025403 | 49 | 336 | 3.5 | 8.7 | 0.00 | 0.00 | 0.00 | 80 | 1008.8 |
| 20260506024503 | 49 | 342 | 2.6 | 7.0 | 0.00 | 0.00 | 0.00 | 80 | 1008.9 |
| 20260506023603 | 49 | 341 | 3.5 | 9.6 | 0.00 | 0.00 | 0.00 | 80 | 1008.9 |
| 20260506022703 | 49 | 347 | 3.5 | 11.3 | 0.00 | 0.00 | 0.00 | 79 | 1008.9 |
| 20260506021803 | 50 | 352 | 4.3 | 11.3 | 0.00 | 0.00 | 0.00 | 78 | 1009.0 |
| 20260506020903 | 50 | 353 | 4.3 | 11.3 | 0.00 | 0.00 | 0.00 | 78 | 1009.0 |
| 20260506020003 | 50 | 355 | 4.3 | 9.6 | 0.00 | 0.00 | 0.00 | 78 | 1009.1 |
| 20260506015617 | 49 | 356 | 4.3 | 9.6 | 0.00 | 0.00 | 0.00 | 78 | 1009.1 |
| 20260506014718 | 49 | 347 | 4.3 | 8.7 | 0.00 | 0.00 | 0.00 | 79 | 1009.1 |
| 20260506013818 | 49 | 344 | 3.5 | 7.8 | 0.00 | 0.00 | 0.00 | 80 | 1009.1 |
| 20260506012917 | 49 | 335 | 3.5 | 8.7 | 0.00 | 0.00 | 0.00 | 80 | 1009.1 |
| 20260506011803 | 49 | 349 | 3.5 | 7.8 | 0.00 | 0.00 | 0.00 | 79 | 1009.0 |
| 20260506011118 | 49 | 349 | 3.5 | 6.1 | 0.00 | 0.00 | 0.00 | 79 | 1009.1 |
| 20260506010003 | 49 | 337 | 2.6 | 6.1 | 0.00 | 0.00 | 0.00 | 80 | 1009.1 |
| 20260506005403 | 49 | 346 | 2.6 | 6.1 | 0.00 | 0.00 | 0.00 | 80 | 1009.1 |
| 20260506004504 | 49 | 343 | 3.5 | 7.8 | 0.00 | 0.00 | 0.00 | 80 | 1009.2 |
| 20260506003603 | 49 | 340 | 2.6 | 8.7 | 0.00 | 0.00 | 0.00 | 80 | 1009.3 |
| 20260506002703 | 50 | 345 | 3.5 | 7.8 | 0.00 | 0.00 | 0.00 | 79 | 1009.4 |
| 20260506002018 | 50 | 346 | 2.6 | 6.1 | 0.00 | 0.00 | 0.00 | 79 | 1009.5 |
| 20260506000903 | 50 | 345 | 2.6 | 7.0 | 0.00 | 0.00 | 0.00 | 79 | 1009.5 |
| 20260506000003 | 50 | 351 | 3.5 | 7.0 | 0.00 | 0.00 | 0.00 | 77 | 1009.5 |
| 20260505235403 | 50 | 352 | 4.3 | 10.4 | 0.00 | 0.00 | 0.00 | 77 | 1009.6 |
| 20260505234503 | 50 | 354 | 3.5 | 7.8 | 0.00 | 0.00 | 0.00 | 77 | 1009.7 |
| 20260505233603 | 50 | 357 | 3.5 | 9.6 | 0.00 | 0.00 | 0.00 | 77 | 1009.7 |
| 20260505232703 | 50 | 356 | 4.3 | 9.6 | 0.00 | 0.00 | 0.00 | 77 | 1009.7 |
| 20260505231803 | 50 | 2 | 4.3 | 8.7 | 0.00 | 0.00 | 0.00 | 77 | 1009.7 |
| 20260505230903 | 51 | 353 | 5.2 | 11.3 | 0.00 | 0.00 | 0.00 | 77 | 1009.7 |
| 20260505230003 | 51 | 354 | 5.2 | 9.6 | 0.00 | 0.00 | 0.00 | 77 | 1009.7 |
| 20260505225403 | 51 | 359 | 5.2 | 9.6 | 0.00 | 0.00 | 0.00 | 77 | 1009.8 |
| 20260505224503 | 51 | 2 | 6.1 | 12.2 | 0.00 | 0.00 | 0.00 | 77 | 1009.9 |
| 20260505223603 | 51 | 4 | 5.2 | 12.2 | 0.00 | 0.00 | 0.00 | 77 | 1009.9 |
| 20260505222918 | 51 | 6 | 5.2 | 10.4 | 0.00 | 0.00 | 0.00 | 77 | 1009.9 |
| 20260505221803 | 52 | 8 | 6.1 | 13.0 | 0.00 | 0.00 | 0.00 | 77 | 1009.9 |
| 20260505220903 | 52 | 4 | 5.2 | 11.3 | 0.00 | 0.00 | 0.00 | 77 | 1009.9 |
| 20260505220218 | 52 | 10 | 5.2 | 11.3 | 0.00 | 0.00 | 0.00 | 77 | 1009.9 |
| 20260505215403 | 52 | 8 | 5.2 | 10.4 | 0.00 | 0.00 | 0.00 | 77 | 1009.9 |
| 20260505214503 | 52 | 5 | 5.2 | 10.4 | 0.00 | 0.00 | 0.00 | 77 | 1009.9 |
| 20260505213603 | 52 | 8 | 5.2 | 9.6 | 0.00 | 0.00 | 0.00 | 77 | 1009.9 |
| 20260505212703 | 53 | 9 | 5.2 | 11.3 | 0.00 | 0.00 | 0.00 | 77 | 1009.9 |
| 20260505211803 | 53 | 12 | 5.2 | 10.4 | 0.00 | 0.00 | 0.00 | 77 | 1009.9 |
| 20260505210903 | 53 | 10 | 6.1 | 10.4 | 0.00 | 0.00 | 0.00 | 76 | 1010.0 |
| 20260505210003 | 53 | 12 | 6.1 | 13.0 | 0.00 | 0.00 | 0.00 | 76 | 1009.9 |
| 20260505205403 | 54 | 16 | 5.2 | 12.2 | 0.00 | 0.00 | 0.00 | 76 | 1010.0 |
| 20260505204503 | 54 | 15 | 6.1 | 12.2 | 0.00 | 0.00 | 0.00 | 76 | 1010.0 |
| 20260505203603 | 53 | 359 | 3.5 | 11.3 | 0.00 | 0.00 | 0.00 | 77 | 1009.9 |
| 20260505202703 | 53 | 358 | 2.6 | 8.7 | 0.00 | 0.00 | 0.00 | 79 | 1009.9 |
| 20260505201803 | 54 | 347 | 3.5 | 7.8 | 0.00 | 0.00 | 0.00 | 79 | 1009.8 |
| 20260505201117 | 54 | 349 | 3.5 | 9.6 | 0.00 | 0.00 | 0.00 | 79 | 1009.7 |
| 20260505200003 | 54 | 350 | 3.5 | 7.8 | 0.00 | 0.00 | 0.00 | 79 | 1009.6 |
| 20260505195616 | 54 | 353 | 3.5 | 7.8 | 0.00 | 0.00 | 0.00 | 79 | 1009.6 |
| 20260505194503 | 54 | 355 | 4.3 | 8.7 | 0.00 | 0.00 | 0.00 | 78 | 1009.6 |
| 20260505193817 | 54 | 350 | 3.5 | 10.4 | 0.00 | 0.00 | 0.00 | 77 | 1009.5 |
| 20260505192703 | 54 | 350 | 3.5 | 8.7 | 0.00 | 0.00 | 0.00 | 77 | 1009.5 |
| 20260505191803 | 55 | 352 | 3.5 | 7.8 | 0.00 | 0.00 | 0.00 | 76 | 1009.4 |
| 20260505190903 | 55 | 357 | 2.6 | 6.1 | 0.00 | 0.00 | 0.00 | 73 | 1009.4 |
| 20260505190004 | 55 | 1 | 3.5 | 7.0 | 0.00 | 0.00 | 0.00 | 75 | 1009.4 |
| 20260505185403 | 56 | 2 | 3.5 | 7.0 | 0.00 | 0.00 | 0.00 | 74 | 1009.4 |
| 20260505184503 | 56 | 11 | 4.3 | 11.3 | 0.00 | 0.00 | 0.00 | 70 | 1009.3 |
| 20260505183603 | 56 | 10 | 4.3 | 11.3 | 0.00 | 0.00 | 0.00 | 64 | 1009.2 |
| 20260505182703 | 56 | 357 | 4.3 | 9.6 | 0.00 | 0.00 | 0.00 | 68 | 1009.2 |
| 20260505181803 | 56 | 357 | 4.3 | 10.4 | 0.00 | 0.00 | 0.00 | 71 | 1009.2 |
| 20260505180903 | 56 | 356 | 4.3 | 10.4 | 0.00 | 0.00 | 0.00 | 70 | 1009.1 |
| 20260505180003 | 57 | 1 | 4.3 | 9.6 | 0.00 | 0.00 | 0.00 | 72 | 1009.1 |
| 20260505175403 | 57 | 1 | 4.3 | 8.7 | 0.00 | 0.00 | 0.00 | 71 | 1009.0 |
| 20260505174503 | 58 | 359 | 3.5 | 7.8 | 0.00 | 0.00 | 0.00 | 72 | 1009.0 |
| 20260505173818 | 58 | 351 | 3.5 | 7.8 | 0.00 | 0.00 | 0.00 | 72 | 1008.9 |
| 20260505172703 | 58 | 359 | 5.2 | 10.4 | 0.00 | 0.00 | 0.00 | 71 | 1008.8 |
| 20260505171803 | 58 | 1 | 5.2 | 11.3 | 0.00 | 0.00 | 0.00 | 68 | 1008.9 |
| 20260505170903 | 59 | 359 | 6.1 | 13.0 | 0.00 | 0.00 | 0.00 | 68 | 1008.9 |
| 20260505170003 | 59 | 8 | 6.1 | 11.3 | 0.00 | 0.00 | 0.00 | 62 | 1008.8 |
| 20260505165403 | 59 | 12 | 6.1 | 11.3 | 0.00 | 0.00 | 0.00 | 63 | 1008.9 |
| 20260505164503 | 59 | 20 | 5.2 | 8.7 | 0.00 | 0.00 | 0.00 | 63 | 1009.0 |
| 20260505163603 | 59 | 19 | 5.2 | 9.6 | 0.00 | 0.00 | 0.00 | 63 | 1009.1 |
| 20260505162703 | 59 | 22 | 5.2 | 9.6 | 0.00 | 0.00 | 0.00 | 63 | 1009.1 |
| 20260505161803 | 59 | 19 | 5.2 | 9.6 | 0.00 | 0.00 | 0.00 | 64 | 1009.0 |
| 20260505160903 | 59 | 12 | 6.1 | 11.3 | 0.00 | 0.00 | 0.00 | 61 | 1009.1 |
| 20260505152703 | 59 | 10 | 4.3 | 9.6 | 0.00 | 0.00 | 0.00 | 68 | 1009.3 |
| 20260505151803 | 59 | 17 | 4.3 | 9.6 | 0.00 | 0.00 | 0.00 | 69 | 1009.3 |
| 20260505150903 | 59 | 27 | 4.3 | 10.4 | 0.00 | 0.00 | 0.00 | 70 | 1009.4 |
| 20260505124503 | 57 | 40 | 1.7 | 6.1 | 0.00 | 0.00 | 0.00 | 79 | 1010.3 |
| 20260505123603 | 56 | 58 | 2.6 | 9.6 | 0.00 | 0.00 | 0.00 | 79 | 1010.3 |
| 20260505122918 | 56 | 74 | 2.6 | 7.8 | 0.00 | 0.00 | 0.00 | 80 | 1010.4 |
| 20260505122017 | 56 | 63 | 3.5 | 7.8 | 0.00 | 0.00 | 0.00 | 80 | 1010.4 |
| 20260505120903 | 56 | 52 | 2.6 | 7.0 | 0.00 | 0.00 | 0.00 | 80 | 1010.4 |
| 20260505120218 | 55 | 48 | 3.5 | 9.6 | 0.00 | 0.00 | 0.00 | 81 | 1010.4 |
| 20260505115403 | 55 | 33 | 3.5 | 8.7 | 0.00 | 0.00 | 0.00 | 80 | 1010.5 |
| 20260505114717 | 55 | 35 | 4.3 | 8.7 | 0.00 | 0.00 | 0.00 | 81 | 1010.5 |
| 20260505113603 | 55 | 26 | 5.2 | 8.7 | 0.00 | 0.00 | 0.00 | 80 | 1010.6 |
| 20260505112703 | 55 | 30 | 4.3 | 8.7 | 0.00 | 0.00 | 0.00 | 82 | 1010.7 |
| 20260505111803 | 55 | 28 | 5.2 | 9.6 | 0.00 | 0.00 | 0.00 | 82 | 1010.7 |
| 20260505111118 | 55 | 22 | 6.1 | 10.4 | 0.00 | 0.00 | 0.00 | 82 | 1010.6 |
| 20260505101803 | 54 | 12 | 6.1 | 11.3 | 0.00 | 0.00 | 0.00 | 84 | 1011.0 |
| 20260505100903 | 53 | 9 | 5.2 | 9.6 | 0.00 | 0.00 | 0.00 | 86 | 1011.0 |
| 20260505100003 | 53 | 14 | 6.1 | 9.6 | 0.00 | 0.00 | 0.00 | 86 | 1011.0 |
| 20260505095403 | 53 | 18 | 5.2 | 9.6 | 0.00 | 0.00 | 0.00 | 86 | 1011.0 |
| 20260505094718 | 53 | 15 | 4.3 | 9.6 | 0.00 | 0.00 | 0.00 | 86 | 1011.0 |
| 20260505093603 | 53 | 16 | 6.1 | 9.6 | 0.00 | 0.00 | 0.00 | 86 | 1011.1 |
| 20260505092703 | 53 | 11 | 4.3 | 9.6 | 0.00 | 0.00 | 0.00 | 86 | 1011.1 |
| 20260505091803 | 53 | 13 | 5.2 | 10.4 | 0.00 | 0.00 | 0.00 | 87 | 1011.1 |
| 20260505091117 | 52 | 9 | 5.2 | 10.4 | 0.00 | 0.00 | 0.00 | 86 | 1011.1 |
| 20260505090003 | 52 | 11 | 4.3 | 8.7 | 0.00 | 0.00 | 0.00 | 86 | 1011.1 |
| 20260505085619 | 52 | 16 | 5.2 | 10.4 | 0.00 | 0.00 | 0.00 | 86 | 1011.2 |
| 20260505084503 | 52 | 3 | 5.2 | 9.6 | 0.00 | 0.00 | 0.00 | 86 | 1011.2 |
| 20260505083603 | 52 | 16 | 5.2 | 8.7 | 0.00 | 0.00 | 0.00 | 87 | 1011.3 |
| 20260505082703 | 52 | 360 | 4.3 | 9.6 | 0.00 | 0.00 | 0.00 | 87 | 1011.3 |
| 20260505081803 | 52 | 355 | 4.3 | 8.7 | 0.00 | 0.00 | 0.00 | 87 | 1011.4 |
| 20260505081117 | 52 | 3 | 4.3 | 8.7 | 0.00 | 0.00 | 0.00 | 87 | 1011.4 |
| 20260505080003 | 52 | 6 | 5.2 | 10.4 | 0.00 | 0.00 | 0.00 | 87 | 1011.3 |
| 20260505075403 | 52 | 13 | 4.3 | 10.4 | 0.00 | 0.00 | 0.00 | 87 | 1011.3 |
| 20260505074503 | 52 | 6 | 5.2 | 12.2 | 0.00 | 0.00 | 0.00 | 87 | 1011.3 |
| 20260505073603 | 52 | 13 | 5.2 | 10.4 | 0.00 | 0.00 | 0.00 | 87 | 1011.1 |
| 20260505072703 | 52 | 12 | 5.2 | 11.3 | 0.00 | 0.00 | 0.00 | 87 | 1011.1 |
| 20260505071803 | 51 | 9 | 5.2 | 10.4 | 0.00 | 0.00 | 0.00 | 87 | 1011.1 |
| 20260505070903 | 51 | 4 | 4.3 | 9.6 | 0.00 | 0.00 | 0.00 | 88 | 1011.1 |
| 20260505070218 | 51 | 358 | 4.3 | 9.6 | 0.00 | 0.00 | 0.00 | 88 | 1011.2 |
| 20260505065403 | 51 | 2 | 5.2 | 10.4 | 0.00 | 0.00 | 0.00 | 87 | 1011.2 |
| 20260505064503 | 51 | 4 | 4.3 | 7.8 | 0.00 | 0.00 | 0.00 | 87 | 1011.3 |
| 20260505063818 | 51 | 7 | 5.2 | 11.3 | 0.00 | 0.00 | 0.00 | 88 | 1011.4 |
| 20260505062703 | 51 | 360 | 3.5 | 8.7 | 0.00 | 0.00 | 0.00 | 88 | 1011.6 |
| 20260505061803 | 51 | 357 | 4.3 | 7.8 | 0.00 | 0.00 | 0.00 | 87 | 1011.5 |
| 20260505061116 | 51 | 359 | 4.3 | 9.6 | 0.00 | 0.00 | 0.00 | 87 | 1011.5 |
| 20260505060003 | 51 | 356 | 4.3 | 9.6 | 0.00 | 0.00 | 0.00 | 88 | 1011.4 |
| 20260505055403 | 51 | 348 | 4.3 | 8.7 | 0.00 | 0.00 | 0.00 | 88 | 1011.4 |
| 20260505054503 | 51 | 359 | 3.5 | 7.8 | 0.00 | 0.00 | 0.00 | 88 | 1011.4 |
| 20260505053818 | 51 | 356 | 4.3 | 7.8 | 0.00 | 0.00 | 0.00 | 88 | 1011.5 |
| 20260505052917 | 51 | 357 | 3.5 | 8.7 | 0.00 | 0.00 | 0.00 | 88 | 1011.5 |
| 20260505051803 | 51 | 348 | 3.5 | 7.0 | 0.00 | 0.00 | 0.00 | 89 | 1011.6 |
| 20260505050903 | 51 | 350 | 3.5 | 7.8 | 0.00 | 0.00 | 0.00 | 89 | 1011.6 |
| 20260505040903 | 52 | 352 | 3.5 | 7.8 | 0.00 | 0.00 | 0.00 | 87 | 1011.4 |
| 20260505040003 | 52 | 359 | 3.5 | 7.8 | 0.00 | 0.00 | 0.00 | 87 | 1011.4 |
| 20260505035403 | 52 | 360 | 3.5 | 7.8 | 0.00 | 0.00 | 0.00 | 87 | 1011.4 |
| 20260505034503 | 52 | 9 | 4.3 | 8.7 | 0.00 | 0.00 | 0.00 | 87 | 1011.4 |